Weather History for South Bend, IN

Change the Weather History Date:

Tuesday, March 19, 2013

  Actual Average Record
Temperature  
Mean Temperature 27 °F 38 °F  
Max Temperature 34 °F 48 °F 79 °F (2012)
Min Temperature 20 °F 29 °F 3 °F (1934)
Degree Days  
Heating Degree Days 38 27  
Month to date heating degree days 632 567  
Since 1 July heating degree days 5029 5256  
Cooling Degree Days 0 0  
Month to date cooling degree days 0 0  
Year to date cooling degree days 0 0  
Moisture  
Dew Point 13 °F    
Average Humidity 55    
Maximum Humidity 68    
Minimum Humidity 41    
Precipitation  
Precipitation T in 0.08 in 2.15 in (1948)
Month to date precipitation 1.10 1.44  
Year to date precipitation 8.59 5.68  
Snow  
Snow T in - - ()
Month to date snowfall 9.0  
Snow Depth 0.00 in    
Sea Level Pressure  
Sea Level Pressure 29.90 in    
Wind  
Wind Speed 21 mph (West)    
Max Wind Speed 32 mph    
Max Gust Speed 40 mph    
Visibility 9 miles    
Events Snow    
T = Trace of Precipitation, MM = Missing Value Source: NWS Daily Summary

Daily Weather History Graph

Daily Weather History Graph

Search for Another Location

Airport:

Trip Planner

Search our weather history database for the weather conditions in past years. The results will help you decide how hot, cold, wet, or windy it might be!

Date:

Astronomy

Mar. 19, 2013 Rise Set
Actual Time 7:49 AM EDT 7:56 PM EDT
Civil Twilight 7:22 AM EDT 8:24 PM EDT
Nautical Twilight 6:49 AM EDT 8:56 PM EDT
Astronomical Twilight 6:16 AM EDT 9:29 PM EDT
Moon 12:35 PM EDT (3/19) 2:47 AM EDT (3/19)
Length of Visible Light 13h 02m
Length of Day
12h 06m
Waxing Crescent, 49% of the Moon is Illuminated
Mar 19
Waxing Crescent
Mar 19
First Quarter
Mar 27
Full
Apr 3
Last Quarter
Apr 10
New

Hourly Weather History & Observations

Time (EDT) Temp. Windchill Dew Point Humidity Pressure Visibility Wind Dir Wind Speed Gust Speed Precip Events Conditions
12:54 AM 26.1 °F 12.0 °F 17.1 °F 69% 29.79 in 10.0 mi West 20.7 mph 28.8 mph N/A   Overcast
1:54 AM 24.1 °F 9.4 °F 15.1 °F 69% 29.80 in 8.0 mi West 20.7 mph 27.6 mph 0.00 in Snow Light Snow
2:43 AM 23.0 °F 9.6 °F 14.0 °F 68% 29.78 in 9.0 mi West 16.1 mph 26.5 mph 0.00 in Snow Light Snow
2:54 AM 23.0 °F 7.6 °F 14.0 °F 68% 29.81 in 10.0 mi WSW 21.9 mph 25.3 mph 0.00 in   Overcast
3:54 AM 21.9 °F 5.8 °F 12.0 °F 66% 29.81 in 9.0 mi WSW 23.0 mph 33.4 mph 0.00 in Snow Light Snow
4:54 AM 21.9 °F 8.2 °F 10.9 °F 63% 29.81 in 10.0 mi WSW 16.1 mph 24.2 mph 0.00 in   Overcast
5:54 AM 21.9 °F 6.9 °F 12.0 °F 66% 29.82 in 9.0 mi West 19.6 mph 26.5 mph 0.00 in Snow Light Snow
6:36 AM 21.2 °F 4.9 °F 10.4 °F 63% 29.80 in 10.0 mi WSW 23.0 mph 29.9 mph 0.00 in   Overcast
6:54 AM 19.9 °F 5.7 °F 10.9 °F 68% 29.84 in 10.0 mi WSW 16.1 mph 27.6 mph 0.00 in   Overcast
7:40 AM 19.4 °F 3.6 °F 12.2 °F 74% 29.81 in 8.0 mi WSW 19.6 mph 27.6 mph 0.00 in Snow Light Snow
7:54 AM 19.9 °F 3.5 °F 12.9 °F 74% 29.85 in 8.0 mi WSW 21.9 mph 27.6 mph 0.00 in Snow Light Snow
8:24 AM 19.4 °F 3.6 °F 10.4 °F 68% 29.82 in 8.0 mi West 19.6 mph 28.8 mph 0.00 in Snow Light Snow
8:54 AM 19.9 °F 3.5 °F 10.9 °F 68% 29.85 in 9.0 mi West 21.9 mph 33.4 mph 0.00 in Snow Light Snow
9:44 AM 21.2 °F 6.0 °F 12.2 °F 68% 29.83 in 5.0 mi West 19.6 mph 29.9 mph 0.00 in Snow Light Snow
9:54 AM 21.0 °F 5.0 °F 12.0 °F 68% 29.86 in 5.0 mi West 21.9 mph 34.5 mph 0.00 in Snow Light Snow
10:54 AM 21.9 °F 6.2 °F 12.9 °F 68% 29.89 in 7.0 mi West 21.9 mph - 0.00 in Snow Light Snow
11:54 AM 25.0 °F 10.2 °F 12.0 °F 58% 29.90 in 10.0 mi West 21.9 mph 27.6 mph 0.00 in   Overcast
12:54 PM 27.0 °F 12.5 °F 12.9 °F 56% 29.92 in 10.0 mi West 23.0 mph 32.2 mph N/A   Overcast
1:54 PM 30.0 °F 15.7 °F 12.9 °F 49% 29.95 in 10.0 mi West 26.5 mph 35.7 mph N/A   Scattered Clouds
2:54 PM 32.0 °F 18.1 °F 12.0 °F 44% 29.95 in 10.0 mi West 27.6 mph 35.7 mph N/A   Clear
3:54 PM 32.0 °F 17.6 °F 12.0 °F 44% 29.96 in 10.0 mi West 29.9 mph 35.7 mph N/A   Clear
4:54 PM 34.0 °F 21.3 °F 12.9 °F 42% 29.98 in 10.0 mi West 25.3 mph 40.3 mph N/A   Clear
5:54 PM 33.1 °F 20.9 °F 12.0 °F 42% 29.99 in 10.0 mi West 21.9 mph 33.4 mph N/A   Clear
6:54 PM 33.1 °F 21.2 °F 12.0 °F 42% 30.01 in 10.0 mi West 20.7 mph 32.2 mph N/A   Clear
7:54 PM 32.0 °F 20.8 °F 12.0 °F 44% 30.02 in 10.0 mi West 17.3 mph 26.5 mph N/A   Clear
8:54 PM 30.9 °F 20.2 °F 12.9 °F 47% 30.04 in 10.0 mi West 15.0 mph - N/A   Clear
9:54 PM 30.9 °F 18.1 °F 14.0 °F 50% 30.04 in 10.0 mi West 21.9 mph 27.6 mph N/A   Overcast
10:54 PM 30.0 °F 17.9 °F 15.1 °F 54% 30.06 in 10.0 mi West 18.4 mph - N/A   Mostly Cloudy
11:54 PM 28.0 °F 17.5 °F 15.1 °F 58% 30.06 in 10.0 mi West 12.7 mph - N/A   Mostly Cloudy